North Bend, OR

2:04 PM PDT on April 25, 2018 (GMT -0700)
North Bend Municipal

Weather History for KOTH - September, 2015

Change the Weather History Date:

Sunday, September 13, 2015

  Actual Average Record
Temperature  
Mean Temperature 60 °F 58 °F  
Max Temperature 66 °F 65 °F 90 °F (1967)
Min Temperature 54 °F 51 °F 32 °F (1921)
Degree Days  
Heating Degree Days 5 7  
Month to date heating degree days 63 86  
Since 1 July heating degree days 241 465  
Cooling Degree Days 0 0  
Month to date cooling degree days 0 0  
Year to date cooling degree days 14 1  
Growing Degree Days 10 (Base 50)    
Moisture  
Dew Point 55 °F    
Average Humidity 86    
Maximum Humidity 100    
Minimum Humidity 67    
Precipitation  
Precipitation 0.00 in 0.05 in 1.15 in (1968)
Month to date precipitation 0.00 0.52  
Year to date precipitation 19.44 37.76  
Sea Level Pressure  
Sea Level Pressure 30.00 in    
Wind  
Wind Speed 15 mph (North)    
Max Wind Speed 30 mph    
Max Gust Speed 40 mph    
Visibility 10 miles    
Events      
T = Trace of Precipitation, MM = Missing Value Source: NWS Daily Summary

Daily Weather History Graph

Daily Weather History Graph

Search for Another Location

Airport or City:

Astronomy

Sep. 13, 2015 Rise Set
Actual Time 6:54 AM PDT 7:31 PM PDT
Civil Twilight 6:25 AM PDT 7:59 PM PDT
Nautical Twilight 5:51 AM PDT 8:33 PM PDT
Astronomical Twilight 5:15 AM PDT 9:08 PM PDT
Moon 7:17 AM PDT (9/13) 7:45 PM PDT (9/13)
Length of Visible Light 13h 34m
Length of Day
12h 36m
New Moon, 0% of the Moon is Illuminated
Sep 13
New Moon
Sep 21
First Quarter
Sep 27
Full
Oct 4
Last Quarter
Oct 12
New

Hourly Weather History & Observations

Time (PDT) Temp. Dew Point Humidity Pressure Visibility Wind Dir Wind Speed Gust Speed Precip Events Conditions
12:15 AM 59.0 °F 57.2 °F 94% 30.06 in 10.0 mi North 8.1 mph - N/A   Overcast
12:35 AM 59.0 °F 57.2 °F 94% 30.06 in 10.0 mi North 11.5 mph - N/A   Overcast
12:55 AM 57.2 °F 55.4 °F 94% 30.06 in 10.0 mi North 10.4 mph - N/A   Overcast
1:15 AM 57.2 °F 57.2 °F 100% 30.06 in 10.0 mi North 12.7 mph - N/A   Overcast
1:35 AM 57.2 °F 57.2 °F 100% 30.06 in 10.0 mi North 10.4 mph 18.4 mph N/A   Overcast
1:55 AM 57.2 °F 57.2 °F 100% 30.05 in 10.0 mi North 6.9 mph - N/A   Overcast
2:15 AM 57.2 °F 57.2 °F 100% 30.05 in 8.0 mi North 4.6 mph - N/A   Overcast
2:35 AM 57.2 °F 57.2 °F 100% 30.05 in 8.0 mi North 9.2 mph - N/A   Overcast
2:55 AM 57.2 °F 57.2 °F 100% 30.05 in 10.0 mi NNE 3.5 mph - N/A   Overcast
3:15 AM 57.2 °F 57.2 °F 100% 30.05 in 10.0 mi North 3.5 mph - N/A   Overcast
3:35 AM 57.2 °F 55.4 °F 94% 30.05 in 10.0 mi North 11.5 mph 16.1 mph N/A   Overcast
3:55 AM 57.2 °F 55.4 °F 94% 30.06 in 10.0 mi North 8.1 mph - N/A   Overcast
4:15 AM 57.2 °F 57.2 °F 100% 30.06 in 10.0 mi North 12.7 mph - N/A   Overcast
4:35 AM 57.2 °F 57.2 °F 100% 30.05 in 10.0 mi NE 6.9 mph - N/A   Overcast
4:55 AM 57.2 °F 57.2 °F 100% 30.05 in 10.0 mi East 4.6 mph - N/A   Overcast
5:15 AM 57.2 °F 57.2 °F 100% 30.05 in 10.0 mi NE 3.5 mph - N/A   Overcast
5:35 AM 57.2 °F 57.2 °F 100% 30.04 in 10.0 mi NE 3.5 mph - N/A   Overcast
5:55 AM 57.2 °F 57.2 °F 100% 30.04 in 10.0 mi Calm Calm - N/A   Overcast
6:15 AM 57.2 °F 57.2 °F 100% 30.04 in 10.0 mi North 4.6 mph - N/A   Overcast
6:35 AM 57.2 °F 57.2 °F 100% 30.04 in 10.0 mi Calm Calm - N/A   Overcast
6:55 AM 57.2 °F 57.2 °F 100% 30.05 in 10.0 mi North 6.9 mph - N/A   Overcast
7:15 AM 57.2 °F 57.2 °F 100% 30.06 in 10.0 mi NNE 5.8 mph - N/A   Overcast
7:35 AM 57.2 °F 57.2 °F 100% 30.05 in 10.0 mi NNE 6.9 mph - N/A   Overcast
7:55 AM 57.2 °F 57.2 °F 100% 30.05 in 10.0 mi NE 6.9 mph - N/A   Overcast
8:15 AM 59.0 °F 57.2 °F 94% 30.05 in 10.0 mi NNE 4.6 mph - N/A   Overcast
8:35 AM 59.0 °F 57.2 °F 94% 30.06 in 10.0 mi NE 8.1 mph - N/A   Overcast
8:55 AM 59.0 °F 57.2 °F 94% 30.05 in 10.0 mi NNE 8.1 mph - N/A   Overcast
9:15 AM 60.8 °F 57.2 °F 88% 30.05 in 10.0 mi NNE 6.9 mph - N/A   Overcast
9:35 AM 60.8 °F 57.2 °F 88% 30.05 in 10.0 mi North 8.1 mph - N/A   Overcast
9:55 AM 62.6 °F 59.0 °F 88% 30.05 in 10.0 mi NNE 8.1 mph - N/A   Overcast
10:15 AM 64.4 °F 59.0 °F 83% 30.04 in 10.0 mi North 5.8 mph - N/A   Mostly Cloudy
10:35 AM 64.4 °F 59.0 °F 83% 30.04 in 10.0 mi North 8.1 mph - N/A   Clear
10:55 AM 66.2 °F 59.0 °F 78% 30.04 in 10.0 mi North 9.2 mph - N/A   Clear
11:15 AM 66.2 °F 59.0 °F 78% 30.03 in 10.0 mi North 12.7 mph - N/A   Clear
11:35 AM 66.2 °F 59.0 °F 78% 30.02 in 10.0 mi North 19.6 mph - N/A   Clear
11:55 AM 66.2 °F 59.0 °F 78% 30.02 in 10.0 mi North 20.7 mph 26.5 mph N/A   Clear
12:15 PM 64.4 °F 57.2 °F 77% 30.02 in 10.0 mi North 24.2 mph 36.8 mph N/A   Clear
12:35 PM 64.4 °F 57.2 °F 77% 30.02 in 10.0 mi North 27.6 mph 33.4 mph N/A   Clear
12:55 PM 64.4 °F 57.2 °F 77% 30.01 in 10.0 mi North 24.2 mph 34.5 mph N/A   Clear
1:15 PM 64.4 °F 57.2 °F 77% 30.01 in 10.0 mi North 25.3 mph 34.5 mph N/A   Clear
1:35 PM 66.2 °F 55.4 °F 68% 30.00 in 10.0 mi North 25.3 mph 32.2 mph N/A   Clear
1:55 PM 64.4 °F 55.4 °F 73% 30.00 in 10.0 mi North 26.5 mph 35.7 mph N/A   Clear
2:15 PM 64.4 °F 55.4 °F 73% 30.00 in 10.0 mi North 26.5 mph 36.8 mph N/A   Clear
2:35 PM 64.4 °F 55.4 °F 73% 30.00 in 10.0 mi North 27.6 mph 34.5 mph N/A   Clear
2:55 PM 64.4 °F 53.6 °F 68% 30.00 in 10.0 mi North 26.5 mph 38.0 mph N/A   Clear
3:15 PM 64.4 °F 53.6 °F 68% 29.99 in 10.0 mi North 29.9 mph 39.1 mph N/A   Clear
3:35 PM 64.4 °F 53.6 °F 68% 29.99 in 10.0 mi North 24.2 mph 38.0 mph N/A   Clear
3:55 PM 64.4 °F 53.6 °F 68% 29.98 in 10.0 mi North 29.9 mph 40.3 mph N/A   Clear
4:15 PM 64.4 °F 55.4 °F 73% 29.97 in 10.0 mi North 28.8 mph 38.0 mph N/A   Clear
4:35 PM 64.4 °F 55.4 °F 73% 29.96 in 10.0 mi North 32.2 mph 39.1 mph N/A   Clear
4:55 PM 62.6 °F 53.6 °F 72% 29.96 in 10.0 mi North 26.5 mph 40.3 mph N/A   Clear
5:15 PM 62.6 °F 55.4 °F 77% 29.95 in 10.0 mi North 25.3 mph 36.8 mph N/A   Clear
5:35 PM 60.8 °F 55.4 °F 82% 29.95 in 10.0 mi North 27.6 mph 38.0 mph N/A   Clear
5:55 PM 60.8 °F 53.6 °F 77% 29.94 in 10.0 mi North 29.9 mph 34.5 mph N/A   Clear
6:15 PM 60.8 °F 53.6 °F 77% 29.94 in 10.0 mi North 21.9 mph 35.7 mph N/A   Clear
6:35 PM 60.8 °F 53.6 °F 77% 29.94 in 10.0 mi North 27.6 mph 33.4 mph N/A   Clear
6:55 PM 60.8 °F 53.6 °F 77% 29.93 in 10.0 mi North 28.8 mph 33.4 mph N/A   Clear
7:15 PM 59.0 °F 53.6 °F 82% 29.92 in 10.0 mi North 24.2 mph 36.8 mph N/A   Clear
7:35 PM 57.2 °F 51.8 °F 82% 29.92 in 10.0 mi North 21.9 mph 34.5 mph N/A   Clear
7:55 PM 57.2 °F 51.8 °F 82% 29.92 in 10.0 mi North 24.2 mph 31.1 mph N/A   Clear
8:15 PM 57.2 °F 51.8 °F 82% 29.92 in 10.0 mi North 25.3 mph 31.1 mph N/A   Clear
8:35 PM 57.2 °F 51.8 °F 82% 29.92 in 10.0 mi North 25.3 mph 31.1 mph N/A   Clear
8:55 PM 57.2 °F 53.6 °F 88% 29.92 in 10.0 mi North 24.2 mph 35.7 mph N/A   Clear
9:15 PM 57.2 °F 53.6 °F 88% 29.92 in 10.0 mi North 25.3 mph 32.2 mph N/A   Clear
9:35 PM 57.2 °F 51.8 °F 82% 29.92 in 10.0 mi North 23.0 mph 27.6 mph N/A   Clear
9:55 PM 57.2 °F 51.8 °F 82% 29.91 in 10.0 mi North 18.4 mph 27.6 mph N/A   Clear
10:15 PM 57.2 °F 51.8 °F 82% 29.91 in 10.0 mi North 15.0 mph - N/A   Clear
10:35 PM 57.2 °F 51.8 °F 82% 29.91 in 10.0 mi North 12.7 mph - N/A   Clear
10:55 PM 55.4 °F 50.0 °F 82% 29.91 in 10.0 mi North 5.8 mph - N/A   Clear
11:15 PM 55.4 °F 50.0 °F 82% 29.91 in 10.0 mi North 4.6 mph - N/A   Clear
11:35 PM 55.4 °F 50.0 °F 82% 29.91 in 10.0 mi North 5.8 mph - N/A   Clear
11:55 PM 55.4 °F 50.0 °F 82% 29.90 in 10.0 mi North 8.1 mph - N/A   Clear